Flag for Austria Weather past 2 weeks in Güssing, Burgenland, Austria

Now
70 °F

Mild.


Feels Like: 70 °F
Forecast: 56 / 74 °F
Wind: 2 mph from East

Location: Murska Sobota

Current Time: Sep 3, 2015 at 1:27:55 PM

Latest Report: Sep 3, 2015 at 12:00 PM


Visibility: N/A

Pressure: 29.97 "Hg

Humidity: 62%

Dew point: 56 °F

Location of GüssingLocation

Historic Weather in Güssing — Graph

°F

Güssing temperature yesterday

Maximum temperature yesterday: 79 °F (at 2:00 PM)
Minimum temperature yesterday: 59 °F (at 5:00 AM)
Average temperature yesterday: 68 °F

Past Weeks' High & Low Weather Summary

 TemperatureHumidityPressure
High91 °F (Aug 29, 2:00 PM)99% (Aug 27, 7:00 AM)30.24 "Hg (Aug 27, 7:00 AM)
Low53 °F (Aug 27, 6:00 AM)27% (Sep 1, 3:00 PM)29.75 "Hg (Sep 1, 6:00 PM)
Average69 °F73%30.04 "Hg
* Reported Aug 19 12:00 Noon — Sep 3 12:00 Noon, Güssing, Weather by CustomWeather, © 2015

Note: Actual official high and low records may vary slightly from our data, if they occured in-between our weather recording intervals... More about our weather records

Advertising

Güssing weather history for previous 24 hours

 ConditionsComfort  
Time TempWeatherWind HumidityBarometerVisibility
12:00 PM
Thu, Sep 3
70 °FMild.2 mph62%29.97 "HgN/A
11:00 AM67 °FMild.1 mph66%29.98 "HgN/A
10:00 AM67 °FMild.2 mph72%29.99 "HgN/A
9:00 AM65 °FMild.1 mph76%29.98 "HgN/A
8:00 AM62 °FCool.No wind91%29.98 "HgN/A
7:00 AM60 °FCool.1 mph96%29.98 "HgN/A
6:00 AM60 °FCool.1 mph94%29.97 "HgN/A
5:00 AM59 °FCool.2 mph95%29.98 "HgN/A
4:00 AM58 °FCool.1 mph94%29.98 "HgN/A
3:00 AM60 °FCool.No wind90%29.98 "HgN/A
2:00 AM60 °FCool.2 mph89%29.98 "HgN/A
1:00 AM60 °FCool.2 mph89%29.99 "HgN/A
12:00 AM60 °FCool.1 mph85%29.98 "HgN/A
11:00 PM
Wed, Sep 2
61 °FCool.1 mph84%29.98 "HgN/A
10:00 PM63 °FMild.1 mph80%29.97 "HgN/A
9:00 PM65 °FMild.1 mph75%29.96 "HgN/A
8:00 PM67 °FMild.3 mph72%29.93 "HgN/A
7:00 PM70 °FMild.5 mph67%29.92 "HgN/A
6:00 PM73 °FMild.5 mph66%29.91 "HgN/A
5:00 PM73 °FMild.2 mph68%29.91 "HgN/A
4:00 PM76 °FMild.2 mph53%29.90 "HgN/A
3:00 PM79 °FOvercast.2 mph50%29.91 "Hg12 mi
2:00 PM79 °FWarm.5 mph51%29.92 "HgN/A
1:00 PM79 °FWarm.2 mph52%29.93 "HgN/A
Weather by CustomWeather, © 2015

See weather overviewHow to use our weather pages